Regional Weather Roundup
Issued by NWS Mt. Holly, NJ

Home | Current Version | Previous Version | Text Only | Print | Product List | Glossary On
Versions: 1 2 3 4 5 6 7 8 9 10 11 12 13 14 15 16 17 18 19 20 21 22 23 24 25 26 27 28 29 30 31 32 33 34 35 36 37 38 39 40 41 42 43 44 45 46 47 48 49 50
000
ASUS41 KPHI 240612
RWRPHI

REGIONAL WEATHER ROUNDUP
NATIONAL WEATHER SERVICE MOUNT HOLLY NJ
200 AM EDT MON APR 24 2017

NOTE:  "FAIR" INDICATES FEW OR NO CLOUDS BELOW 12,000 FEET WITH NO
SIGNIFICANT WEATHER AND/OR OBSTRUCTIONS TO VISIBILITY.

 * = STATION DOES NOT REPORT PRECIPITATION (E.G. RAIN, SNOW, ETC.)
        OR FOG.

NJZ015>026-240700-
SOUTHERN NEW JERSEY

CITY           SKY/WX    TMP DP  RH WIND       PRES   REMARKS
POMONA         CLOUDY    48  44  86 E3        30.10F
6HR MIN TEMP:  46; 6HR MAX TEMP:  51;

WILDWOOD*      CLOUDY    51  46  83 NE5       30.10F
MILLVILLE      CLOUDY    48  47  96 SE3       30.10F
WRIGHTSTOWN    CLOUDY    45  44  94 CALM      30.09F
MOUNT HOLLY    CLOUDY    47  45  93 CALM      30.11F
TRENTON        PTCLDY    46  42  86 CALM      30.11F
6HR MIN TEMP:  46; 6HR MAX TEMP:  57;


$$
NJZ001>014-240700-
NORTHERN NEW JERSEY

CITY           SKY/WX    TMP DP  RH WIND       PRES   REMARKS
SUSSEX         CLEAR     44  40  85 CALM      30.11S
ANDOVER*         N/A     47  43  86 CALM      30.10F
MORRISTOWN     CLEAR     43  43 100 CALM      30.12F
NEWARK         MOCLDY    50  42  74 S5        30.13S
TETERBORO      CLEAR     49  42  77 CALM      30.12F
CALDWELL       CLEAR     48  42  80 CALM      30.12F
SOMERVILLE     CLEAR     44  42  93 CALM      30.11S
ALLAIRE*       PTCLDY    46  44  93 CALM      30.13F
TOMS RIVER*    CLOUDY    43  41  93 CALM      30.12F

$$
PAZ043-044-047-054-055-060>062-066>071-240700-
EASTERN PENNSYLVANIA

CITY           SKY/WX    TMP DP  RH WIND       PRES   REMARKS
PHILADELPHIA   CLOUDY    51  45  79 SE3       30.11F
6HR MIN TEMP:  50; 6HR MAX TEMP:  57;

NORTH PHILA    CLOUDY    51  45  79 CALM      30.12F
BLUE BELL*     PTCLDY    45  45 100 CALM      30.12F
DOYLESTOWN     PTCLDY    44  43  96 CALM      30.10F
QUAKERTOWN*    PTCLDY    43  41  93 CALM      30.11F
PERKASIE*      FAIR      43  43 100 CALM      30.11F
POTTSTOWN      PTCLDY    45  42  89 CALM      30.12F
LANCASTER      PTCLDY    47  45  93 E3        30.10S
COATESVILLE    CLOUDY    48  46  93 CALM      30.11F
READING        CLEAR     49  45  86 CALM      30.08F
6HR MIN TEMP:  47; 6HR MAX TEMP:  61;

ALLENTOWN      CLEAR     46  39  76 CALM      30.09F
6HR MIN TEMP:  46; 6HR MAX TEMP:  62;

MOUNT POCONO   CLEAR     37  35  92 NW3       30.09F
6HR MIN TEMP:  36; 6HR MAX TEMP:  53;

HAZLETON       CLEAR     37  27  65 CALM      30.11F
LEHIGHTON      FAIR      37  36  93 CALM      30.10F
WILKES BARRE   PTCLDY    50  36  58 SE3       30.08F

$$
DEZALL-MDZ008-012-015-019-020-240700-
DELAWARE AND EASTERN MARYLAND

CITY           SKY/WX    TMP DP  RH WIND       PRES   REMARKS
WILMINGTON     CLOUDY    51  47  86 E6        30.11F
6HR MIN TEMP:  51; 6HR MAX TEMP:  54;

DOVER          CLOUDY    51  51 100 E6        30.09F
GEORGETOWN     CLOUDY    51  47  86 MISG      30.08F
6HR MIN TEMP:  51; 6HR MAX TEMP:  52;

EASTON         PTCLDY    52  46  80 E3        30.12F
ABERDEEN       CLOUDY    51  47  86 E3        30.11F
PATUXENT       CLOUDY    52  50  93 NE10      30.06F
OCEAN CITY     CLOUDY    51  47  86 NE10      30.07F
WALLOPS ISLAND LGT RAIN  52  47  83 NE15      30.06S
SALISBURY      CLOUDY    50  49  96 NE6       30.07F

$$
PAZ001-021-NYZ056-072-MDZ011-DCZ001-240700-
OTHER NEARBY LOCATIONS

CITY           SKY/WX    TMP DP  RH WIND       PRES   REMARKS
HARRISBURG     CLOUDY    48  45  89 CALM      30.08F
STATE COLLEGE  CLEAR     47  32  56 CALM      30.08S
WILLIAMSPORT   CLEAR     46  38  73 CALM      30.08S
BINGHAMTON     CLEAR     49  29  46 CALM      30.08S
NEW YORK CITY  CLEAR     51  38  60 CALM      30.15F
BALTIMORE      CLOUDY    53  50  89 CALM      30.09F
WASHINGTON DC  LGT RAIN  56  48  74 E7        30.09F

$$



USA.gov is the U.S. government's official web portal to all federal, state and local government web resources and services.